Content
SEND FEEDBACK

Daily
Averages
Monthly
Summary
United Kingdom

LYDD, ENGLAND


Home > Europe > United Kingdom > England
Elevation: 3 feet     Latitude: 50 57N     Longitude: 000 56E

WEATHER
 
SELECT A DAY
Number of Records: 66,695;   Date Range: 7/1/96 - 7/22/14
 
SHARE

PRINT THIS DATA

[ ← Previous Day ]
WEATHER ALMANAC - SEPTEMBER 25, 2013
[ Next Day → ]
[ °C ]   °F
Weather ElementAverageHighLow
Temperature65.5 °F68 °F (1:50 pm)60.8 °F (8:50 am)
Dewpoint61.3 °F62.6 °F (9:20 am)60.8 °F (8:50 am)
Humidity86.9 %100 % (8:50 am)78 % (2:50 pm)
Barometer29.86 in29.89 in (10:50 am)29.83 in (4:50 pm)
Wind Speed5.5 mph8.1 mph (12:20 pm)
Weather ElementAverage
Visibility2.1 mi
Wind DirectionESE (119.6 °)

Weather ElementTotal
Precipitation---
Heating Degree Days0.6 (Base 65)
Growing Degree Days14.4 (Base 50)
Averaged from 24 records on September 25, 2013
WEATHER CONDITIONS BREAKOUT
WIND DIRECTION BREAKOUT
WEATHER BY HOUR - SEPTEMBER 25, 2013
[ °C ]   °F
Local TimeTemperatureDewpointHumidityBarometerVisibilityWind DirectionWind SpeedGust SpeedPrecipitationEventsConditions
8:50 AM60.8 °F60.8 °F100 %29.86 in0.5 miVariable3.5 mphFogFog
9:20 AM62.6 °F62.6 °F100 %29.86 in0.9 miNE (40°)4.6 mphPartly Cloudy
9:50 AM64.4 °F62.6 °F94 %29.86 in0.9 miENE (60°)6.9 mphHaze
10:20 AM66.2 °F62.6 °F88 %29.86 in2.2 miEast (80°)4.6 mphHaze
10:50 AM66.2 °F60.8 °F83 %29.89 in2.8 miEast (100°)6.9 mphHaze
11:20 AM66.2 °F60.8 °F83 %29.89 in2.8 miESE (110°)6.9 mphHaze
11:50 AM66.2 °F60.8 °F83 %29.89 in2.8 miESE (110°)6.9 mphHaze
12:20 PM66.2 °F60.8 °F83 %29.86 in2.8 miESE (110°)8.1 mphHaze
12:50 PM66.2 °F62.6 °F88 %29.86 in2.5 miESE (110°)6.9 mphHaze
1:20 PM66.2 °F60.8 °F83 %29.86 in2.5 miSE (130°)6.9 mphHaze
1:50 PM68.0 °F62.6 °F83 %29.86 in2.5 miESE (120°)6.9 mphHaze
2:20 PM68.0 °F62.6 °F83 %29.86 in2.5 miEast (100°)5.8 mphHaze
2:50 PM68.0 °F60.8 °F78 %29.86 in2.5 miESE (120°)5.8 mphHaze
3:20 PM68.0 °F62.6 °F83 %29.86 in2.5 miESE (120°)5.8 mphHaze
3:50 PM68.0 °F60.8 °F78 %29.86 in2.5 miESE (110°)6.9 mphHaze
4:20 PM68.0 °F60.8 °F78 %29.86 in2.5 miSE (130°)5.8 mphHaze
4:50 PM66.2 °F60.8 °F83 %29.83 in2.5 miSouth (190°)6.9 mphHaze
5:20 PM66.2 °F60.8 °F83 %29.83 in1.9 miSSW (200°)8.1 mphHaze
5:50 PM64.4 °F60.8 °F88 %29.83 in1.9 miSSW (200°)4.6 mphHaze
6:20 PM64.4 °F60.8 °F88 %29.83 in1.2 miSouth (170°)2.3 mphHaze
6:50 PM64.4 °F60.8 °F88 %29.86 in1.2 miSW (220°)3.5 mphHaze
8:50 PM62.6 °F60.8 °F94 %29.89 in1.9 miSouth (170°)1.2 mphRainLight Rain
9:20 PM60.8 °F60.8 °F100 %29.89 in1.9 miEast (80°)2.3 mphRainLight Rain
9:50 PM62.6 °F60.8 °F94 %29.89 in1.6 miEast (90°)3.5 mphRainLight Rain
Hourly data recorded from EGMD, located miles away from Lydd, England







STORIES FROM OUR PARTNERS